Wautoma, WI

2:08 PM CDT on April 26, 2017 (GMT -0500)
Wautoma

Weather History for KY50 - May, 2013

Change the Weather History Date:

Thursday, May 30, 2013

  Actual Average (KPCZ) Record (KPCZ)
Temperature  
Mean Temperature 72 °F -  
Max Temperature 82 °F 73 °F 91 °F (1953)
Min Temperature 61 °F 50 °F 34 °F (1966)
Cooling Degree Days 6    
Growing Degree Days 22 (Base 50)    
Moisture  
Dew Point 65 °F    
Average Humidity 83    
Maximum Humidity 100    
Minimum Humidity 56    
Precipitation  
Precipitation 0.36 in - - ()
Sea Level Pressure  
Sea Level Pressure 29.78 in    
Wind  
Wind Speed 6 mph (SSE)    
Max Wind Speed 23 mph    
Max Gust Speed 38 mph    
Visibility 7 miles    
Events Rain    
Averages and records for this station are not official NWS values.
T = Trace of Precipitation, MM = Missing Value Source: NWS Daily Summary

Daily Weather History Graph

Daily Weather History Graph

Search for Another Location

Airport or City:

Trip Planner

Search our weather history database for the weather conditions in past years. The results will help you decide how hot, cold, wet, or windy it might be!

Date:

Astronomy

May. 30, 2013 Rise Set
Actual Time 5:18 AM CDT 8:31 PM CDT
Civil Twilight 4:42 AM CDT 9:07 PM CDT
Nautical Twilight 3:57 AM CDT 9:52 PM CDT
Astronomical Twilight 3:01 AM CDT 10:48 PM CDT
Moon 12:25 AM CDT (5/30) 11:35 AM CDT (5/30)
Length of Visible Light 16h 24m
Length of Day
15h 13m
Waning Gibbous, 62% of the Moon is Illuminated
May 30
Waning Gibbous
May 31
Last Quarter
Jun 8
New
Jun 16
First Quarter
Jun 23
Full

Hourly Weather History & Observations

Time (CDT) Temp. Heat Index Dew Point Humidity Pressure Visibility Wind Dir Wind Speed Gust Speed Precip Events Conditions
12:56 AM 62.6 °F - 62.6 °F 100% 29.88 in 6.0 mi Calm Calm - N/A Rain Light Rain
1:16 AM 62.6 °F - 62.6 °F 100% 29.88 in 1.8 mi Calm Calm - 0.07 in Rain Rain
1:28 AM 62.6 °F - 62.6 °F 100% 29.88 in 2.0 mi Calm Calm - 0.11 in Rain Rain
1:36 AM 62.6 °F - 62.6 °F 100% 29.88 in 3.0 mi East 3.5 mph - 0.12 in Rain Light Rain
1:40 AM 62.6 °F - 62.6 °F 100% 29.89 in 4.0 mi Calm Calm - 0.13 in Rain Light Rain
1:44 AM 62.6 °F - 62.6 °F 100% 29.88 in 5.0 mi Calm Calm - 0.13 in Rain Light Rain
1:56 AM 63.0 °F - 63.0 °F 100% 29.86 in 10.0 mi ESE 4.6 mph - 0.13 in Rain Light Rain
2:56 AM 63.0 °F - 63.0 °F 100% 29.83 in 10.0 mi ESE 3.5 mph - 0.00 in   Partly Cloudy
3:56 AM 61.9 °F - 61.9 °F 100% 29.82 in 10.0 mi ESE 4.6 mph - N/A   Clear
4:19 AM 62.6 °F - 62.6 °F 100% 29.83 in 10.0 mi East 3.5 mph - N/A   Partly Cloudy
4:34 AM 62.6 °F - 62.6 °F 100% 29.83 in 7.0 mi ESE 3.5 mph - N/A   Mostly Cloudy
4:56 AM 61.9 °F - 61.9 °F 100% 29.81 in 10.0 mi ESE 4.6 mph - N/A   Scattered Clouds
5:56 AM 63.0 °F - 63.0 °F 100% 29.80 in 8.0 mi SE 4.6 mph - N/A   Clear
6:56 AM 64.9 °F - 64.9 °F 100% 29.81 in 7.0 mi SSE 5.8 mph - N/A   Clear
7:56 AM 70.9 °F - 65.8 °F 84% 29.79 in 10.0 mi SSE 8.1 mph - N/A   Clear
8:56 AM 73.9 °F - 66.9 °F 79% 29.80 in 10.0 mi SSE 11.5 mph 17.3 mph N/A   Clear
9:56 AM 77.0 °F - 66.9 °F 71% 29.78 in 10.0 mi South 16.1 mph 19.6 mph N/A   Partly Cloudy
10:17 AM 78.8 °F - 66.2 °F 65% 29.80 in 10.0 mi South 16.1 mph - N/A   Mostly Cloudy
10:44 AM 78.8 °F - 66.2 °F 65% 29.80 in 10.0 mi South 13.8 mph 19.6 mph N/A   Mostly Cloudy
10:56 AM 79.0 °F - 66.9 °F 66% 29.78 in 10.0 mi South 12.7 mph 20.7 mph N/A   Mostly Cloudy
11:56 AM 81.0 °F 83.0 °F 65.8 °F 60% 29.77 in 10.0 mi South 19.6 mph 27.6 mph N/A   Partly Cloudy
12:56 PM 81.9 °F 83.9 °F 65.8 °F 58% 29.75 in 10.0 mi SSE 16.1 mph 24.2 mph N/A   Partly Cloudy
1:56 PM 82.9 °F 85.0 °F 65.8 °F 56% 29.72 in 10.0 mi South 20.7 mph 26.5 mph N/A   Mostly Cloudy
2:29 PM 78.8 °F - 66.2 °F 65% 29.76 in 2.5 mi South 23.0 mph 38.0 mph 0.05 in Rain Light Rain
2:31 PM 75.2 °F - 66.2 °F 73% 29.75 in 0.8 mi SSW 16.1 mph 38.0 mph 0.10 in Rain Rain
2:38 PM 73.4 °F - 66.2 °F 78% 29.75 in 0.5 mi SSW 8.1 mph - 0.11 in Rain Light Rain
2:40 PM 73.4 °F - 66.2 °F 78% 29.75 in 1.0 mi South 8.1 mph - 0.11 in Rain Light Rain
2:42 PM 73.4 °F - 68.0 °F 83% 29.75 in 5.0 mi South 9.2 mph - 0.11 in   Haze
2:56 PM 79.0 °F - 68.9 °F 71% 29.72 in 10.0 mi South 19.6 mph 27.6 mph 0.11 in   Partly Cloudy
3:56 PM 81.0 °F 83.0 °F 65.8 °F 60% 29.69 in 10.0 mi South 12.7 mph 26.5 mph N/A   Scattered Clouds
4:56 PM 79.0 °F - 64.9 °F 62% 29.69 in 8.0 mi South 20.7 mph 31.1 mph N/A   Mostly Cloudy
5:01 PM 75.2 °F - 66.2 °F 73% 29.72 in 1.8 mi South 21.9 mph 31.1 mph 0.05 in Rain Heavy Rain
5:11 PM 73.4 °F - 64.4 °F 73% 29.71 in 3.0 mi SSW 10.4 mph 24.2 mph 0.06 in   Haze
5:56 PM 74.8 °F - 64.9 °F 71% 29.68 in 10.0 mi SSW 4.6 mph - 0.06 in   Partly Cloudy
6:56 PM 73.4 °F - 66.2 °F 78% 29.71 in 2.0 mi SSW 9.2 mph - N/A Rain Light Rain
7:07 PM 71.6 °F - 68.0 °F 88% 29.72 in 10.0 mi South 4.6 mph - 0.00 in   Mostly Cloudy
7:56 PM 72.0 °F - 68.9 °F 90% 29.71 in 9.0 mi Calm Calm - 0.00 in   Mostly Cloudy
8:36 PM 71.6 °F - 68.0 °F 88% 29.72 in 3.0 mi East 3.5 mph - 0.04 in Rain Light Rain
8:56 PM 70.9 °F - 68.0 °F 91% 29.70 in 6.0 mi SSE 5.8 mph - 0.05 in Rain Light Rain
9:06 PM 71.6 °F - 68.0 °F 88% 29.72 in 7.0 mi SSE 9.2 mph - 0.01 in Rain Light Rain
9:56 PM 68.0 °F - 63.9 °F 87% 29.73 in 10.0 mi SSE 9.2 mph - 0.01 in Rain Light Rain
10:56 PM 66.9 °F - 63.0 °F 87% 29.74 in 10.0 mi South 9.2 mph - 0.00 in   Partly Cloudy
11:56 PM 64.9 °F - 59.9 °F 84% 29.74 in 10.0 mi SSE 10.4 mph - N/A   Partly Cloudy